Вернуться в каталог

COSMOS 886 DEB

АктивенLEO
NORAD 9724·DEBRIS·🇷🇺 Russia

Запущен Dec 27, 1976 с Baikonur Cosmodrome

Loading…

Ближайшие Пролёты (ближайшие 24 часа)

TLE

СвежийSource: Space-Track

Эпоха: Sep 14, 2026, 00:52 UTC

1 09724U 76126V   26257.03672960  .00000600  00000-0  29607-3 0  9992
2 09724  65.8186 276.7648 0762795 121.6719 246.1026 13.27504349349387

Отслеживайте COSMOS 886 DEB в реальном времени с AllMySat

Download on the App Store